{"data":{"norad_id":47382,"epoch":"2026-09-19T13:38:41.361792Z","epoch_age_seconds":106178,"freshness":"FRESH","line1":"1 47382U 21005AK  26262.56853428 -.00000139  00000+0  72965-5 0  9998","line2":"2 47382  53.1594 204.2649 0001407  81.4024 278.7136 15.31695118313248","mean_motion":15.31695118,"eccentricity":0.0001407,"inclination_deg":53.1594,"raan_deg":204.2649,"arg_perigee_deg":81.4024,"mean_anomaly_deg":278.7136,"bstar":7.2965e-6,"rev_number":31324,"period_min":94.013487611051,"perigee_km":469.79090921143,"apogee_km":471.7181872931,"semimajor_km":6848.8915482523,"source":"CELESTRAK","updated_at":"2026-09-20T09:00:38.593081Z"}}